Flag for Brazil Weather past 2 weeks in Campo Grande, Mato Grosso Do Sul, Brazil

Now
70 °F

Clear.


Feels Like: 70 °F
Forecast: 68 / 84 °F
Wind: 7 mph from Northeast

Location: Campo Grande Aeroporto

Current Time: May 24, 2015 at 4:08:53 AM

Latest Report: May 24, 2015 at 3:00 AM


Visibility: 10 mi

Pressure: 29.98 "Hg

Humidity: 88%

Dew point: 66 °F

Location of Campo GrandeLocation

Historic Weather in Campo Grande — Graph

°F

Campo Grande temperature yesterday

Maximum temperature yesterday: 86 °F (at 2:00 PM)
Minimum temperature yesterday: 68 °F (at 3:00 AM)
Average temperature yesterday: 76 °F

Past Weeks' High & Low Weather Summary

 TemperatureHumidityPressure
High86 °F (May 22, 1:00 PM)100% (May 10, 2:00 PM)30.21 "Hg (May 10, 2:00 PM)
Low32 °F (May 16, 9:00 PM)44% (May 12, 3:00 PM)29.92 "Hg (May 10, 3:00 AM)
Average70 °F77%30.06 "Hg
* Reported May 9 3:00 AM — May 24 3:00 AM, Campo Grande, Weather by CustomWeather, © 2015

Note: Actual official high and low records may vary slightly from our data, if they occured in-between our weather recording intervals... More about our weather records

Advertising

Campo Grande weather history for previous 24 hours

 ConditionsComfort  
Time TempWeatherWind HumidityBarometerVisibility
3:00 AM
Sun, May 24
70 °FClear.7 mph88%29.98 "Hg10 mi
2:00 AM70 °FClear.5 mph88%29.98 "Hg10 mi
1:00 AM72 °FClear.6 mph83%29.98 "Hg10 mi
12:00 AM72 °FClear.8 mph83%30.01 "Hg10 mi
11:00 PM
Sat, May 23
72 °FClear.5 mph83%30.01 "Hg10 mi
10:00 PM73 °FClear.9 mph83%30.01 "Hg10 mi
9:00 PM73 °FClear.7 mph83%30.01 "Hg10 mi
8:00 PM73 °FPassing clouds.7 mph83%30.01 "HgN/A
7:00 PM75 °FPassing clouds.7 mph74%30.01 "HgN/A
6:00 PM75 °FThundershowers. Passing clouds.7 mph74%29.98 "HgN/A
5:00 PM81 °FPassing clouds.10 mph62%29.98 "HgN/A
4:00 PM82 °FScattered clouds.16 mph58%29.98 "HgN/A
3:00 PM84 °FPartly sunny.16 mph55%29.98 "HgN/A
2:00 PM86 °FPartly sunny.20 mph52%29.98 "HgN/A
1:00 PM84 °FScattered clouds.15 mph55%30.01 "HgN/A
12:00 PM84 °FPassing clouds.16 mph55%30.04 "HgN/A
11:00 AM82 °FPassing clouds.16 mph58%30.04 "HgN/A
10:00 AM82 °FSunny.15 mph62%30.07 "Hg10 mi
9:00 AM79 °FSunny.13 mph65%30.07 "Hg10 mi
8:00 AM77 °FScattered clouds.10 mph69%30.07 "HgN/A
7:00 AM70 °FScattered clouds.6 mph83%30.07 "HgN/A
6:00 AM68 °FPassing clouds.10 mph88%30.04 "HgN/A
5:00 AM70 °FPassing clouds.8 mph83%30.04 "HgN/A
4:00 AM68 °FPassing clouds.6 mph83%30.01 "HgN/A
Weather by CustomWeather, © 2015

See weather overviewHow to use our weather pages